contact:dominique.lefevre@mio.osupytheas.fr, maurice.libes@osupytheas.fr, didier.mallarino@osupytheas.fr
Project:EMSO http://www.emso-fr.org/EMSO-France
Depth: 2436.0 m
Title:EMSO Ligure Ouest : Data MII capteur OXYGEN
DateTime,Latitude,Longitude,Optode-Type,Optode_Serial,Oxygen,Saturation_Oxygen,Temperature
DateTime,Latitude,Longitude,Optode-Type,Optode_Serial,µmol.l-1,%,degC
2019-05-22T13:23:13,42.805,6.029,4330,1995,195.935,59.925,13.292
2019-05-22T13:26:13,42.805,6.029,4330,1995,195.927,59.930,13.297
2019-05-22T13:29:13,42.805,6.029,4330,1995,195.921,59.926,13.296
2019-05-22T13:32:13,42.805,6.029,4330,1995,195.857,59.906,13.295
2019-05-22T13:35:13,42.805,6.029,4330,1995,195.743,59.870,13.294
2019-05-22T13:38:13,42.805,6.029,4330,1995,195.757,59.878,13.298
2019-05-22T13:41:13,42.805,6.029,4330,1995,195.655,59.849,13.299
2019-05-22T13:44:13,42.805,6.029,4330,1995,195.649,59.846,13.298
2019-05-22T13:47:13,42.805,6.029,4330,1995,195.623,59.833,13.295
2019-05-22T13:50:13,42.805,6.029,4330,1995,195.709,59.859,13.295
2019-05-22T13:53:13,42.805,6.029,4330,1995,195.791,59.890,13.299
2019-05-22T13:56:13,42.805,6.029,4330,1995,195.834,59.899,13.296
2019-05-22T13:59:13,42.805,6.029,4330,1995,195.804,59.893,13.298
2019-05-22T14:02:13,42.805,6.029,4330,1995,195.541,59.804,13.292
2019-05-22T14:05:13,42.805,6.029,4330,1995,195.774,59.880,13.295
2019-05-22T14:08:13,42.805,6.029,4330,1995,195.800,59.888,13.296
2019-05-22T14:11:13,42.805,6.029,4330,1995,195.981,59.945,13.297
2019-05-22T14:14:13,42.805,6.029,4330,1995,195.871,59.911,13.296
2019-05-22T14:17:13,42.805,6.029,4330,1995,195.880,59.911,13.294
2019-05-22T14:20:13,42.805,6.029,4330,1995,196.020,59.955,13.295
2019-05-22T14:23:13,42.805,6.029,4330,1995,196.028,59.959,13.296
2019-05-22T14:26:13,42.805,6.029,4330,1995,196.021,59.953,13.293
2019-05-22T14:29:13,42.805,6.029,4330,1995,195.902,59.919,13.295
2019-05-22T14:32:13,42.805,6.029,4330,1995,195.924,59.925,13.295
2019-05-22T14:35:13,42.805,6.029,4330,1995,195.970,59.938,13.294
2019-05-22T14:38:13,42.805,6.029,4330,1995,195.861,59.909,13.297
2019-05-22T14:41:13,42.805,6.029,4330,1995,195.951,59.935,13.296
2019-05-22T14:44:13,42.805,6.029,4330,1995,196.079,59.971,13.293
2019-05-22T14:47:13,42.805,6.029,4330,1995,196.058,59.968,13.296
2019-05-22T14:50:13,42.805,6.029,4330,1995,195.986,59.949,13.299
2019-05-22T14:53:13,42.805,6.029,4330,1995,195.771,59.879,13.295
2019-05-22T14:56:13,42.805,6.029,4330,1995,195.696,59.853,13.293
2019-05-22T14:59:13,42.805,6.029,4330,1995,195.710,59.860,13.295
2019-05-22T15:02:13,42.805,6.029,4330,1995,195.661,59.846,13.296
2019-05-22T15:05:13,42.805,6.029,4330,1995,195.887,59.915,13.295
2019-05-22T15:08:13,42.805,6.029,4330,1995,195.818,59.899,13.299
2019-05-22T15:11:13,42.805,6.029,4330,1995,195.888,59.917,13.296
2019-05-22T15:14:13,42.805,6.029,4330,1995,195.797,59.889,13.297
2019-05-22T15:17:13,42.805,6.029,4330,1995,195.530,59.810,13.299
2019-05-22T15:20:13,42.805,6.029,4330,1995,195.324,59.744,13.297
2019-05-22T15:23:13,42.805,6.029,4330,1995,195.451,59.785,13.298
2019-05-22T15:26:13,42.805,6.029,4330,1995,195.787,59.883,13.294
2019-05-22T15:29:13,42.805,6.029,4330,1995,195.842,59.900,13.295
2019-05-22T15:32:13,42.805,6.029,4330,1995,195.912,59.920,13.293
2019-05-22T15:35:13,42.805,6.029,4330,1995,195.995,59.947,13.295
2019-05-22T15:38:13,42.805,6.029,4330,1995,195.916,59.927,13.298
2019-05-22T15:41:13,42.805,6.029,4330,1995,195.962,59.939,13.296
2019-05-22T15:44:13,42.805,6.029,4330,1995,195.558,59.819,13.299
2019-05-22T15:47:13,42.805,6.029,4330,1995,195.501,59.804,13.301
2019-05-22T15:50:13,42.805,6.029,4330,1995,195.269,59.734,13.301
2019-05-22T15:53:13,42.805,6.029,4330,1995,195.163,59.700,13.300
2019-05-22T15:56:13,42.805,6.029,4330,1995,195.153,59.696,13.299
2019-05-22T15:59:13,42.805,6.029,4330,1995,195.237,59.723,13.301
2019-05-22T16:02:13,42.805,6.029,4330,1995,195.248,59.722,13.298
2019-05-22T16:05:13,42.805,6.029,4330,1995,195.077,59.673,13.300
2019-05-22T16:08:13,42.805,6.029,4330,1995,195.068,59.668,13.299
2019-05-22T16:11:13,42.805,6.029,4330,1995,195.191,59.704,13.297
2019-05-22T16:14:13,42.805,6.029,4330,1995,195.390,59.769,13.300
2019-05-22T16:17:13,42.805,6.029,4330,1995,195.511,59.800,13.296
2019-05-22T16:20:13,42.805,6.029,4330,1995,195.643,59.845,13.299
2019-05-22T16:23:13,42.805,6.029,4330,1995,195.743,59.875,13.299
2019-05-22T16:26:13,42.805,6.029,4330,1995,195.788,59.889,13.298
2019-05-22T16:29:13,42.805,6.029,4330,1995,195.884,59.916,13.297
2019-05-22T16:32:13,42.805,6.029,4330,1995,195.741,59.873,13.298
2019-05-22T16:35:13,42.805,6.029,4330,1995,195.514,59.801,13.295
2019-05-22T16:38:13,42.805,6.029,4330,1995,195.517,59.806,13.299
2019-05-22T16:41:13,42.805,6.029,4330,1995,195.599,59.827,13.296
2019-05-22T16:44:13,42.805,6.029,4330,1995,195.633,59.840,13.297
2019-05-22T16:47:13,42.805,6.029,4330,1995,195.592,59.823,13.294
2019-05-22T16:50:13,42.805,6.029,4330,1995,195.525,59.805,13.296
2019-05-22T16:53:13,42.805,6.029,4330,1995,195.410,59.772,13.298
2019-05-22T16:56:13,42.805,6.029,4330,1995,195.422,59.777,13.298
2019-05-22T16:59:13,42.805,6.029,4330,1995,195.508,59.801,13.297
2019-05-22T17:02:13,42.805,6.029,4330,1995,195.582,59.823,13.296
2019-05-22T17:05:13,42.805,6.029,4330,1995,195.474,59.794,13.299
2019-05-22T17:08:13,42.805,6.029,4330,1995,195.434,59.774,13.294
2019-05-22T17:11:13,42.805,6.029,4330,1995,195.488,59.790,13.293
2019-05-22T17:14:13,42.805,6.029,4330,1995,195.759,59.878,13.297
2019-05-22T17:17:13,42.805,6.029,4330,1995,195.650,59.844,13.296
2019-05-22T17:20:13,42.805,6.029,4330,1995,195.632,59.840,13.298
2019-05-22T17:23:13,42.805,6.029,4330,1995,195.659,59.844,13.295
2019-05-22T17:26:13,42.805,6.029,4330,1995,195.521,59.805,13.297
2019-05-22T17:29:13,42.805,6.029,4330,1995,195.522,59.806,13.298
2019-05-22T17:32:13,42.805,6.029,4330,1995,195.641,59.843,13.298
2019-05-22T17:35:13,42.805,6.029,4330,1995,195.797,59.887,13.295
2019-05-22T17:38:13,42.805,6.029,4330,1995,195.669,59.851,13.298
2019-05-22T17:41:13,42.805,6.029,4330,1995,195.629,59.836,13.296
2019-05-22T17:44:13,42.805,6.029,4330,1995,195.610,59.827,13.293
2019-05-22T17:47:13,42.805,6.029,4330,1995,195.782,59.878,13.292
2019-05-22T17:50:13,42.805,6.029,4330,1995,195.888,59.911,13.292
2019-05-22T17:53:13,42.805,6.029,4330,1995,195.917,59.925,13.296
2019-05-22T17:56:13,42.805,6.029,4330,1995,195.922,59.928,13.297
2019-05-22T17:59:13,42.805,6.029,4330,1995,195.855,59.904,13.295
2019-05-22T18:02:13,42.805,6.029,4330,1995,195.941,59.930,13.294
2019-05-22T18:05:13,42.805,6.029,4330,1995,195.936,59.932,13.297
2019-05-22T18:08:13,42.805,6.029,4330,1995,195.898,59.918,13.295
2019-05-22T18:11:13,42.805,6.029,4330,1995,195.876,59.913,13.296
2019-05-22T18:14:13,42.805,6.029,4330,1995,195.936,59.932,13.297
2019-05-22T18:17:13,42.805,6.029,4330,1995,195.796,59.888,13.296
2019-05-22T18:20:13,42.805,6.029,4330,1995,195.813,59.895,13.297
2019-05-22T18:23:13,42.805,6.029,4330,1995,195.779,59.885,13.298
2019-05-22T18:26:13,42.805,6.029,4330,1995,195.725,59.867,13.297
2019-05-22T18:29:13,42.805,6.029,4330,1995,195.635,59.842,13.298
2019-05-22T18:32:13,42.805,6.029,4330,1995,195.642,59.844,13.298
2019-05-22T18:35:13,42.805,6.029,4330,1995,195.726,59.869,13.298
2019-05-22T18:38:13,42.805,6.029,4330,1995,195.684,59.856,13.298
2019-05-22T18:41:13,42.805,6.029,4330,1995,195.605,59.826,13.293
2019-05-22T18:44:13,42.805,6.029,4330,1995,195.490,59.790,13.293
2019-05-22T18:47:13,42.805,6.029,4330,1995,195.854,59.899,13.291
2019-05-22T18:50:13,42.805,6.029,4330,1995,195.765,59.875,13.293
2019-05-22T18:53:13,42.805,6.029,4330,1995,195.961,59.933,13.292
2019-05-22T18:56:13,42.805,6.029,4330,1995,196.007,59.947,13.292
2019-05-22T18:59:13,42.805,6.029,4330,1995,195.892,59.911,13.291
2019-05-22T19:02:13,42.805,6.029,4330,1995,195.964,59.933,13.291
2019-05-22T19:05:13,42.805,6.029,4330,1995,196.043,59.956,13.291
2019-05-22T19:08:13,42.805,6.029,4330,1995,195.914,59.917,13.291
2019-05-22T19:11:13,42.805,6.029,4330,1995,195.818,59.895,13.296
2019-05-22T19:14:13,42.805,6.029,4330,1995,195.700,59.859,13.297
2019-05-22T19:17:13,42.805,6.029,4330,1995,195.738,59.870,13.296
2019-05-22T19:20:13,42.805,6.029,4330,1995,195.764,59.881,13.298
2019-05-22T19:23:13,42.805,6.029,4330,1995,195.822,59.897,13.297
2019-05-22T19:26:13,42.805,6.029,4330,1995,195.984,59.945,13.296
2019-05-22T19:29:13,42.805,6.029,4330,1995,196.029,59.957,13.294
2019-05-22T19:32:13,42.805,6.029,4330,1995,196.006,59.946,13.291
2019-05-22T19:35:13,42.805,6.029,4330,1995,195.959,59.936,13.295
2019-05-22T19:38:13,42.805,6.029,4330,1995,195.981,59.945,13.297
2019-05-22T19:41:13,42.805,6.029,4330,1995,195.909,59.923,13.296
2019-05-22T19:44:13,42.805,6.029,4330,1995,195.931,59.925,13.293
2019-05-22T19:47:13,42.805,6.029,4330,1995,195.990,59.948,13.297
2019-05-22T19:50:13,42.805,6.029,4330,1995,195.989,59.949,13.298
2019-05-22T19:53:13,42.805,6.029,4330,1995,195.639,59.841,13.297
2019-05-22T19:56:13,42.805,6.029,4330,1995,195.341,59.753,13.299
2019-05-22T19:59:13,42.805,6.029,4330,1995,195.356,59.757,13.299
2019-05-22T20:02:13,42.805,6.029,4330,1995,195.454,59.788,13.299
2019-05-22T20:05:13,42.805,6.029,4330,1995,195.361,59.760,13.300
2019-05-22T20:08:13,42.805,6.029,4330,1995,195.379,59.765,13.299
2019-05-22T20:11:13,42.805,6.029,4330,1995,195.346,59.756,13.300
2019-05-22T20:14:13,42.805,6.029,4330,1995,195.178,59.703,13.299
2019-05-22T20:17:13,42.805,6.029,4330,1995,195.154,59.697,13.300
2019-05-22T20:20:13,42.805,6.029,4330,1995,195.185,59.707,13.301
2019-05-22T20:23:13,42.805,6.029,4330,1995,195.152,59.696,13.300
2019-05-22T20:26:13,42.805,6.029,4330,1995,195.285,59.736,13.299
2019-05-22T20:29:13,42.805,6.029,4330,1995,195.284,59.736,13.300
2019-05-22T20:32:13,42.805,6.029,4330,1995,195.212,59.713,13.299
2019-05-22T20:35:13,42.805,6.029,4330,1995,195.260,59.728,13.299
2019-05-22T20:38:13,42.805,6.029,4330,1995,195.315,59.743,13.298
2019-05-22T20:41:13,42.805,6.029,4330,1995,195.281,59.734,13.299
2019-05-22T20:44:13,42.805,6.029,4330,1995,195.308,59.741,13.298
2019-05-22T20:47:13,42.805,6.029,4330,1995,195.406,59.769,13.297
2019-05-22T20:50:13,42.805,6.029,4330,1995,195.634,59.832,13.292
2019-05-22T20:53:13,42.805,6.029,4330,1995,195.885,59.910,13.293
2019-05-22T20:56:13,42.805,6.029,4330,1995,195.726,59.864,13.294
2019-05-22T20:59:13,42.805,6.029,4330,1995,195.577,59.819,13.295
2019-05-22T21:02:13,42.805,6.029,4330,1995,195.683,59.848,13.292
2019-05-22T21:05:13,42.805,6.029,4330,1995,195.942,59.928,13.293
2019-05-22T21:08:13,42.805,6.029,4330,1995,195.906,59.919,13.294
2019-05-22T21:11:13,42.805,6.029,4330,1995,195.794,59.886,13.295
2019-05-22T21:14:13,42.805,6.029,4330,1995,195.819,59.897,13.298
2019-05-22T21:17:13,42.805,6.029,4330,1995,195.729,59.873,13.300
2019-05-22T21:20:13,42.805,6.029,4330,1995,195.690,59.857,13.298
2019-05-22T21:23:13,42.805,6.029,4330,1995,195.415,59.771,13.296
2019-05-22T21:26:13,42.805,6.029,4330,1995,195.014,59.650,13.297
2019-05-22T21:29:13,42.805,6.029,4330,1995,195.218,59.708,13.293
2019-05-22T21:32:13,42.805,6.029,4330,1995,195.290,59.731,13.294
2019-05-22T21:35:13,42.805,6.029,4330,1995,195.506,59.797,13.295
2019-05-22T21:38:13,42.805,6.029,4330,1995,195.622,59.834,13.296
2019-05-22T21:41:13,42.805,6.029,4330,1995,195.647,59.842,13.296
2019-05-22T21:44:13,42.805,6.029,4330,1995,195.684,59.849,13.293
2019-05-22T21:47:13,42.805,6.029,4330,1995,195.884,59.914,13.296
2019-05-22T21:50:13,42.805,6.029,4330,1995,196.079,59.977,13.298
2019-05-22T21:53:13,42.805,6.029,4330,1995,195.989,59.944,13.294
2019-05-22T21:56:13,42.805,6.029,4330,1995,195.862,59.913,13.300
2019-05-22T21:59:13,42.805,6.029,4330,1995,195.614,59.833,13.296
2019-05-22T22:02:13,42.805,6.029,4330,1995,195.677,59.849,13.294
2019-05-22T22:05:13,42.805,6.029,4330,1995,195.951,59.938,13.298
2019-05-22T22:08:13,42.805,6.029,4330,1995,196.000,59.951,13.297
2019-05-22T22:11:13,42.805,6.029,4330,1995,195.891,59.921,13.299
2019-05-22T22:14:13,42.805,6.029,4330,1995,195.734,59.874,13.300
2019-05-22T22:17:13,42.805,6.029,4330,1995,195.425,59.779,13.300
2019-05-22T22:20:13,42.805,6.029,4330,1995,195.325,59.747,13.299
2019-05-22T22:23:13,42.805,6.029,4330,1995,195.163,59.697,13.298
2019-05-22T22:26:13,42.805,6.029,4330,1995,195.425,59.773,13.295
2019-05-22T22:29:13,42.805,6.029,4330,1995,195.648,59.841,13.295
2019-05-22T22:32:13,42.805,6.029,4330,1995,195.802,59.885,13.293
2019-05-22T22:35:13,42.805,6.029,4330,1995,195.857,59.904,13.294
2019-05-22T22:38:13,42.805,6.029,4330,1995,195.721,59.868,13.299
2019-05-22T22:41:13,42.805,6.029,4330,1995,195.715,59.861,13.294
2019-05-22T22:44:13,42.805,6.029,4330,1995,195.727,59.869,13.298
2019-05-22T22:47:13,42.805,6.029,4330,1995,195.685,59.852,13.295
2019-05-22T22:50:13,42.805,6.029,4330,1995,195.489,59.799,13.300
2019-05-22T22:53:13,42.805,6.029,4330,1995,195.372,59.763,13.300
2019-05-22T22:56:13,42.805,6.029,4330,1995,195.194,59.707,13.299
2019-05-22T22:59:13,42.805,6.029,4330,1995,195.266,59.728,13.298
2019-05-22T23:02:13,42.805,6.029,4330,1995,195.196,59.710,13.300
2019-05-22T23:05:13,42.805,6.029,4330,1995,195.130,59.689,13.300
2019-05-22T23:08:13,42.805,6.029,4330,1995,195.075,59.666,13.295
2019-05-22T23:11:13,42.805,6.029,4330,1995,194.984,59.640,13.296
2019-05-22T23:14:13,42.805,6.029,4330,1995,195.043,59.655,13.294
2019-05-22T23:17:13,42.805,6.029,4330,1995,195.214,59.709,13.295
2019-05-22T23:20:13,42.805,6.029,4330,1995,195.131,59.686,13.297
2019-05-22T23:23:13,42.805,6.029,4330,1995,195.052,59.657,13.294
2019-05-22T23:26:13,42.805,6.029,4330,1995,195.295,59.731,13.293
2019-05-22T23:29:13,42.805,6.029,4330,1995,195.656,59.842,13.294
2019-05-22T23:32:13,42.805,6.029,4330,1995,195.690,59.856,13.296
2019-05-22T23:35:13,42.805,6.029,4330,1995,195.717,59.864,13.296
2019-05-22T23:38:13,42.805,6.029,4330,1995,195.628,59.841,13.299
2019-05-22T23:41:13,42.805,6.029,4330,1995,195.685,59.851,13.294
2019-05-22T23:44:13,42.805,6.029,4330,1995,195.800,59.887,13.294
2019-05-22T23:47:13,42.805,6.029,4330,1995,195.752,59.875,13.297
2019-05-22T23:50:13,42.805,6.029,4330,1995,195.674,59.851,13.297
2019-05-22T23:53:13,42.805,6.029,4330,1995,195.303,59.739,13.297
2019-05-22T23:56:13,42.805,6.029,4330,1995,195.452,59.779,13.293
2019-05-22T23:59:13,42.805,6.029,4330,1995,195.450,59.785,13.298
